EDT,Max TemperatureF,Mean TemperatureF,Min TemperatureF,Max Dew PointF,MeanDew PointF,Min DewpointF,Max Humidity, Mean Humidity, Min Humidity, Max Sea Level PressureIn, Mean Sea Level PressureIn, Min Sea Level PressureIn, Max VisibilityMiles, Mean VisibilityMiles, Min VisibilityMiles, Max Wind SpeedMPH, Mean Wind SpeedMPH, Max Gust SpeedMPH,PrecipitationIn, CloudCover, Events, WindDirDegrees
2013-3-1,33,30,28,30,25,21,87,79,69,29.97,29.90,29.82,10,7,2,10,6,,0.00,8,Snow,302
2013-3-2,30,27,24,23,21,19,86,76,69,29.98,29.93,29.89,10,5,1,10,6,,0.01,8,Snow,297
2013-3-3,28,26,24,21,19,15,86,77,64,30.04,29.96,29.92,10,4,1,13,7,18,0.00,8,Snow,286
2013-3-4,39,30,21,20,14,10,75,56,38,30.16,30.09,30.05,10,10,10,10,6,16,0.00,3,,279
2013-3-5,50,38,27,35,27,19,93,65,41,30.08,29.84,29.59,10,9,2,12,3,24,0.31,6,Rain-Snow,68
2013-3-6,37,34,30,31,30,28,96,87,75,30.13,29.85,29.61,10,4,0,13,5,18,0.43,8,Fog-Snow,306
2013-3-7,39,36,33,30,28,24,85,73,57,30.28,30.22,30.13,10,10,8,13,8,,0.00,8,,291
2013-3-8,37,34,28,27,24,21,82,67,57,30.41,30.36,30.27,10,10,10,12,7,,0.00,7,,334
2013-3-9,60,42,24,29,26,21,89,59,30,30.41,30.28,30.17,10,9,6,6,0,,0.00,0,,40
2013-3-10,71,54,37,34,29,25,76,42,22,30.16,30.08,29.99,10,10,10,12,2,21,0.00,1,,175
2013-3-11,63,57,52,49,34,27,89,44,28,29.99,29.85,29.73,10,10,7,18,6,25,0.05,4,Rain,174
2013-3-12,52,44,35,50,35,26,94,80,65,30.03,29.90,29.75,10,9,4,21,9,28,0.17,8,Rain,255
2013-3-13,36,31,26,31,25,18,93,77,56,30.18,30.04,29.95,10,5,0,20,8,28,0.02,8,Fog-Snow,268
2013-3-14,41,33,25,21,16,13,80,58,33,30.29,30.20,30.14,10,9,1,15,10,21,0.00,5,Snow,275
2013-3-15,53,40,27,32,24,15,61,52,41,30.16,29.98,29.83,10,10,10,14,6,20,0.00,4,,240
2013-3-16,61,52,42,49,43,35,93,77,58,29.92,29.74,29.60,10,9,7,17,8,24,0.12,7,Rain,259
2013-3-17,42,37,32,37,28,21,89,73,56,30.15,30.06,29.92,10,9,6,12,7,,0.00,8,,16
2013-3-18,51,43,36,43,36,29,89,80,62,30.08,29.86,29.70,10,7,2,18,8,31,0.82,7,Rain-Thunderstorm,127
2013-3-19,50,43,35,47,29,8,96,65,25,30.00,29.82,29.70,10,8,3,26,12,45,0.04,6,Rain,260
2013-3-20,45,36,30,17,13,11,47,40,30,30.02,29.92,29.80,10,10,10,22,12,33,0.00,5,,260
2013-3-21,30,24,21,19,10,5,80,55,41,29.98,29.90,29.86,10,9,2,17,10,25,0.00,7,Snow,282
2013-3-22,43,32,23,14,13,11,63,46,32,30.03,29.99,29.95,10,10,10,14,9,25,0.00,2,,258
2013-3-23,50,36,21,20,16,13,81,49,24,30.05,30.00,29.95,10,10,10,10,3,,0.00,0,,281
2013-3-24,45,38,30,34,27,20,93,74,40,29.92,29.65,29.47,10,7,1,10,7,,0.19,5,Rain-Snow,59
2013-3-25,35,34,32,32,30,28,96,86,81,29.76,29.54,29.43,10,3,0,14,8,21,0.46,8,Fog-Snow,217
2013-3-26,41,37,33,34,30,27,100,82,62,30.11,29.96,29.77,10,8,2,15,7,23,0.04,8,Rain-Snow,292
2013-3-27,42,36,32,28,27,23,87,74,53,30.20,30.15,30.09,10,8,2,15,8,22,0.01,8,Snow,269
2013-3-28,43,38,34,25,24,23,67,57,49,30.28,30.23,30.17,10,10,10,13,8,20,0.00,8,,277
2013-3-29,53,44,36,29,25,21,76,50,31,30.28,30.23,30.17,10,10,10,14,3,17,0.00,7,,260
2013-3-30,57,44,32,28,24,19,79,46,24,30.25,30.15,30.01,10,10,10,9,2,,0.00,2,,347
2013-3-31,51,45,39,46,40,26,93,79,49,29.99,29.82,29.76,10,8,3,10,3,,0.18,7,Rain,228